CZ-4B DEB, 35573

Orbit data source: Space-Track

CZ-4B DEB, 35573 is space debris in SSO originally from a launch on Sat, 25 Oct 2008 UTC launched from the Taiyaun Space Center, China (TSC). Debris objects in space refer to the collection of defunct objects orbiting the Earth. Examples of debris include non-operational satellites, rocket bodies, and fragments generated from explosions, collisions, or faulty payload assembly.

Loading next visibility...
Identifier
35573, 2008-053J
Orbit
SSO
Country
Flag of CNCN / PRC
Related business
Manufacturer
DFH
Mission
Spacecraft
Bus & Motor
Unknown
Mass
Unknown
Launch date (UTC)
2008-10-25 (18 years ago)
Launch vehicle
Unknown
Launch site
Taiyaun Space Center, China (TSC)
Object type
Payload
Rocket body
Debris
Shape & HBR
Unknown shape, 0.1 m
Radar Cross Section
Small (<0.1 m²)

Expand to show TLE details & history
Last TLE update: 2 days ago

TLE from 2 days ago
0 CZ-4B DEB
1 35573U 08053J   26171.24044576  .00027287  00000-0  10908-2 0  9994
2 35573  97.7915 276.6182 0050751 308.7548  50.9158 15.23873896934295
Epoch: 2026-06-20T05:46Z
TLE epoch observation values (Epoch: 2026-06-20T05:46:14.513Z)
Latitude
-0.00005°
Longitude
-78.40017°
Altitude
475.367 km
Speed
7.64 km/s
True Right ascension
18h 26m 28s
True Declination
0° 00' 00"
Sunlit
Object was in full shadow at epoch
Visualization orbit readout
Latitude
Unknown
Longitude
Unknown
Altitude
Unknown
Speed
Unknown
Apparent Right ascension
Unknown
Apparent Declination
Unknown
Sunlit
N/A
Visualization observer readout
Local Sidereal Time
23:07:55
Azimuth
Unknown
Elevation
Unknown
Doppler factor
Unknown
Orbital elements
Apogee altitude
526.009 km
Perigee altitude
456.284 km
Semi-major axis
6,869.283 km
Eccentricity
0.00508
Inclination
97.7915°
RAAN
276.6182°
Arg. of periapsis
308.7548°
True anomaly
51.36903°
Mean anomaly
50.9158°
Eccentric anomaly
51.14223°
Mean motion
3.8122 °/min
Orbital period
94.43 mins
BSTAR
0.0010908
Loading maneuver chart data...
Computing Atmospheric mass density...
Loading historical data...
Loading historical data...
Loading historical data...
Loading historical data...
Loading historical data...
Loading historical data...
Loading historical data...

Documentation

Showing up to 5 results
|